Starlink 30792

operational
NORAD ID: 58220 Int'l Des: 2023-170 Owner: SPXS Country: US Constellation: starlink
LEOCIRCULAR

关于 Starlink 30792

正在加载描述...

实时位置

正在加载3D地球...

即将过境

高度历史

Altitude vs Time

uPlot chart will show altitude changes over time

两行轨道根数

1 58220U 23170Q 25352.19056170 .00010068 00000-0 75392-3 0 9990
2 58220 43.0026 278.4424 0001111 260.7931 99.2786 15.02804645118025
Epoch: Dec 18, 2025 • Age: 10 hours

当前状态

高度 557.8 km
速度 7.58 km/s
星下点 0.74°N, 143.78°E
发射日期 Nov 4, 2023
运行时间 2.1 years
类型 internet

技术详情

分类 Payload
质量 730.00 kg
干质量 700.00 kg
总质量 730.00 kg
长度 0.30 m
直径 4.10 m
跨度 29.00 m
形状 Box + pan
制造商 SPXS
平台类型 Starlink V2M
阶段状态 In Orbit
所有者/国家 SPXS/US

大型星座

Loading constellations...